EWG84A EDDM-EDDH

Flight info

Callsign EWG84A
Flight time 1h 1m
Altitude 34000
Route INPUD Y102 UPALA M726 NARUS DCT ABGUS DCT DIRBO T902 RARUP
Aircraft A319/M-SDE3FGHIRWY/LB1

Departure

Time 2026-05-06 13:01
Airport Munich Airport (EDDM)

Arrival

Time 2026-05-06 14:02
Airport Hamburg Helmut Schmidt Airport (EDDH)
Time Latitude Longitude Altitude Speed Heading
2026-05-06 12:29 48.35665 11.79940 0 ft 0 kts 263°
2026-05-06 12:48 48.35667 11.79968 1469 ft 3 kts 263°
2026-05-06 12:49 48.35670 11.80008 1473 ft 3 kts 263°
2026-05-06 12:49 48.35674 11.80047 1475 ft 4 kts 286°
2026-05-06 12:49 48.35658 11.80067 1473 ft 2 kts 353°
2026-05-06 12:49 48.35640 11.80071 1475 ft 1 kts 353°
2026-05-06 12:53 48.35643 11.80070 1485 ft 2 kts 353°
2026-05-06 12:53 48.35667 11.80066 1485 ft 5 kts 355°
2026-05-06 12:53 48.35709 11.80076 1480 ft 7 kts
2026-05-06 12:54 48.35764 11.80069 1485 ft 9 kts 352°
2026-05-06 12:54 48.35823 11.80033 1485 ft 10 kts 306°
2026-05-06 12:54 48.35823 11.79923 1485 ft 11 kts 263°
2026-05-06 12:54 48.35814 11.79798 1485 ft 13 kts 264°
2026-05-06 12:55 48.35804 11.79659 1479 ft 14 kts 264°
2026-05-06 12:55 48.35795 11.79539 1485 ft 12 kts 263°
2026-05-06 12:55 48.35793 11.79416 1477 ft 11 kts 292°
2026-05-06 12:55 48.35862 11.79383 1485 ft 12 kts 354°
2026-05-06 12:56 48.35942 11.79347 1485 ft 13 kts 338°
2026-05-06 12:56 48.36033 11.79326 1474 ft 13 kts 355°
2026-05-06 12:56 48.36087 11.79246 1482 ft 13 kts 269°
2026-05-06 12:56 48.36077 11.79105 1480 ft 14 kts 263°
2026-05-06 12:57 48.36065 11.78953 1479 ft 15 kts 263°
2026-05-06 12:57 48.36052 11.78790 1485 ft 16 kts 263°
2026-05-06 12:57 48.36039 11.78615 1485 ft 17 kts 263°
2026-05-06 12:57 48.36025 11.78427 1481 ft 18 kts 264°
2026-05-06 12:58 48.36010 11.78230 1485 ft 19 kts 263°
2026-05-06 12:58 48.35994 11.78023 1485 ft 20 kts 263°
2026-05-06 12:58 48.35978 11.77818 1485 ft 16 kts 263°
2026-05-06 12:58 48.35972 11.77711 1485 ft 8 kts 273°
2026-05-06 12:59 48.36017 11.77667 1483 ft 9 kts 354°
2026-05-06 12:59 48.36083 11.77657 1485 ft 10 kts 359°
2026-05-06 12:59 48.36150 11.77711 1482 ft 12 kts 48°
2026-05-06 12:59 48.36205 11.77821 1480 ft 15 kts 53°
2026-05-06 13:00 48.36274 11.77960 1480 ft 19 kts 53°
2026-05-06 13:00 48.36363 11.78146 1482 ft 25 kts 63°
2026-05-06 13:00 48.36407 11.78447 1485 ft 46 kts 83°
2026-05-06 13:00 48.36468 11.79258 1475 ft 108 kts 84°
2026-05-06 13:01 48.36577 11.80674 1502 ft 157 kts 83°
2026-05-06 13:01 48.36695 11.82276 2077 ft 153 kts 82°
2026-05-06 13:01 48.36819 11.83870 2708 ft 153 kts 82°
2026-05-06 13:01 48.37014 11.85516 3080 ft 171 kts 66°
2026-05-06 13:02 48.37896 11.86840 3389 ft 197 kts 24°
2026-05-06 13:02 48.39345 11.87055 3605 ft 226 kts 358°
2026-05-06 13:02 48.40993 11.86762 4080 ft 253 kts 344°
2026-05-06 13:02 48.42543 11.85322 4771 ft 273 kts 313°
2026-05-06 13:03 48.43783 11.83096 5730 ft 281 kts 308°
2026-05-06 13:03 48.45057 11.80837 6686 ft 285 kts 311°
2026-05-06 13:03 48.46681 11.79090 7561 ft 292 kts 331°
2026-05-06 13:03 48.48503 11.77714 8492 ft 294 kts 331°
2026-05-06 13:04 48.50350 11.76329 9394 ft 298 kts 330°
2026-05-06 13:04 48.52226 11.74923 10094 ft 308 kts 330°
2026-05-06 13:04 48.54218 11.73420 10363 ft 331 kts 330°
2026-05-06 13:04 48.56323 11.71831 10876 ft 343 kts 330°
2026-05-06 13:05 48.58474 11.70210 11581 ft 348 kts 329°
2026-05-06 13:05 48.60649 11.68578 12334 ft 351 kts 329°
2026-05-06 13:05 48.62852 11.66923 13107 ft 354 kts 329°
2026-05-06 13:05 48.65064 11.65259 13807 ft 358 kts 329°
2026-05-06 13:06 48.67303 11.63573 14446 ft 361 kts 329°
2026-05-06 13:06 48.69565 11.61862 15066 ft 365 kts 329°
2026-05-06 13:06 48.71846 11.60133 15678 ft 369 kts 329°
2026-05-06 13:06 48.74152 11.58384 16317 ft 373 kts 329°
2026-05-06 13:07 48.76487 11.56609 16983 ft 377 kts 328°
2026-05-06 13:07 48.78844 11.54817 17611 ft 381 kts 329°
2026-05-06 13:07 48.81227 11.53007 18169 ft 385 kts 329°
2026-05-06 13:07 48.83634 11.51177 18663 ft 389 kts 329°
2026-05-06 13:08 48.86066 11.49325 19170 ft 393 kts 329°
2026-05-06 13:08 48.88517 11.47454 19679 ft 396 kts 328°
2026-05-06 13:08 48.90153 11.46203 20025 ft 399 kts 328°
2026-05-06 13:08 48.92648 11.44296 20543 ft 403 kts 328°
2026-05-06 13:09 48.95164 11.42375 21067 ft 407 kts 329°
2026-05-06 13:09 48.97706 11.40431 21562 ft 411 kts 329°
2026-05-06 13:09 49.00268 11.38470 22069 ft 414 kts 329°
2026-05-06 13:09 49.02856 11.36485 22570 ft 418 kts 329°
2026-05-06 13:10 49.05462 11.34481 23067 ft 421 kts 329°
2026-05-06 13:10 49.08091 11.32457 23520 ft 425 kts 329°
2026-05-06 13:10 49.10739 11.30414 23945 ft 428 kts 329°
2026-05-06 13:10 49.13400 11.28358 24372 ft 430 kts 329°
2026-05-06 13:11 49.16037 11.26326 24784 ft 432 kts 330°
2026-05-06 13:11 49.18914 11.24847 25191 ft 443 kts 346°
2026-05-06 13:11 49.21996 11.24352 25638 ft 447 kts 352°
2026-05-06 13:11 49.25107 11.23978 26063 ft 450 kts 352°
2026-05-06 13:12 49.28234 11.23621 26467 ft 452 kts 352°
2026-05-06 13:12 49.31375 11.23267 26862 ft 454 kts 352°
2026-05-06 13:12 49.34538 11.22907 27263 ft 457 kts 352°
2026-05-06 13:12 49.37721 11.22540 27659 ft 459 kts 352°
2026-05-06 13:13 49.40910 11.22170 28047 ft 462 kts 352°
2026-05-06 13:13 49.44123 11.21794 28428 ft 464 kts 352°
2026-05-06 13:13 49.47355 11.21410 28796 ft 467 kts 352°
2026-05-06 13:13 49.50601 11.21024 29171 ft 469 kts 352°
2026-05-06 13:14 49.53868 11.20637 29541 ft 472 kts 352°
2026-05-06 13:14 49.57151 11.20252 29875 ft 475 kts 352°
2026-05-06 13:14 49.60461 11.19867 30148 ft 478 kts 352°
2026-05-06 13:14 49.63783 11.19480 30432 ft 480 kts 352°
2026-05-06 13:15 49.67123 11.19087 30712 ft 483 kts 352°
2026-05-06 13:15 49.70485 11.18689 30996 ft 485 kts 352°
2026-05-06 13:15 49.73855 11.18286 31278 ft 487 kts 352°
2026-05-06 13:15 49.77238 11.17876 31638 ft 487 kts 351°
2026-05-06 13:16 49.80614 11.17468 32041 ft 486 kts 351°
2026-05-06 13:16 49.83985 11.17066 32445 ft 486 kts 351°
2026-05-06 13:16 49.87350 11.16668 32832 ft 485 kts 351°
2026-05-06 13:16 49.90715 11.16273 33231 ft 484 kts 351°
2026-05-06 13:17 49.94075 11.15877 33634 ft 484 kts 351°
2026-05-06 13:17 49.97428 11.15475 33781 ft 481 kts 350°
2026-05-06 13:17 50.00739 11.15079 33797 ft 475 kts 350°
2026-05-06 13:18 50.07291 11.14297 33797 ft 471 kts 350°
2026-05-06 13:18 50.13824 11.13499 33790 ft 470 kts 350°
2026-05-06 13:19 50.20335 11.12695 33792 ft 469 kts 350°
2026-05-06 13:19 50.26843 11.11900 33793 ft 469 kts 350°
2026-05-06 13:20 50.33339 11.11118 33790 ft 468 kts 350°
2026-05-06 13:20 50.39830 11.10328 33786 ft 468 kts 350°
2026-05-06 13:21 50.46317 11.09535 33786 ft 467 kts 351°
2026-05-06 13:21 50.52797 11.08731 33775 ft 467 kts 351°
2026-05-06 13:22 50.59276 11.07933 33780 ft 467 kts 351°
2026-05-06 13:22 50.65764 11.07135 33773 ft 467 kts 351°
2026-05-06 13:23 50.72241 11.06343 33775 ft 467 kts 351°
2026-05-06 13:23 50.78722 11.05542 33774 ft 467 kts 351°
2026-05-06 13:24 50.85201 11.04736 33778 ft 467 kts 351°
2026-05-06 13:24 50.91671 11.03918 33786 ft 467 kts 351°
2026-05-06 13:25 50.98142 11.03100 33792 ft 466 kts 351°
2026-05-06 13:25 51.04604 11.02292 33797 ft 465 kts 351°
2026-05-06 13:26 51.11055 11.01494 33798 ft 464 kts 351°
2026-05-06 13:26 51.17483 11.00681 33799 ft 463 kts 351°
2026-05-06 13:27 51.23902 10.99863 33794 ft 462 kts 351°
2026-05-06 13:27 51.30306 10.99033 33789 ft 462 kts 351°
2026-05-06 13:28 51.36703 10.98222 33787 ft 461 kts 351°
2026-05-06 13:28 51.43096 10.97412 33786 ft 460 kts 351°
2026-05-06 13:29 51.49483 10.96598 33782 ft 461 kts 351°
2026-05-06 13:29 51.55880 10.95776 33783 ft 461 kts 351°
2026-05-06 13:30 51.62276 10.94947 33775 ft 461 kts 351°
2026-05-06 13:30 51.68680 10.94121 33775 ft 462 kts 351°
2026-05-06 13:31 51.75081 10.93297 33787 ft 462 kts 351°
2026-05-06 13:31 51.81477 10.92462 33788 ft 461 kts 351°
2026-05-06 13:32 51.87874 10.91633 33794 ft 461 kts 351°
2026-05-06 13:32 51.94260 10.90808 33800 ft 460 kts 352°
2026-05-06 13:33 52.00639 10.89971 33803 ft 459 kts 352°
2026-05-06 13:33 52.07006 10.89132 33798 ft 459 kts 352°
2026-05-06 13:34 52.13362 10.88292 33807 ft 458 kts 352°
2026-05-06 13:34 52.19712 10.87457 33818 ft 457 kts 352°
2026-05-06 13:35 52.26053 10.86615 33500 ft 456 kts 352°
2026-05-06 13:35 52.29210 10.86199 32997 ft 454 kts 352°
2026-05-06 13:35 52.32348 10.85783 32499 ft 451 kts 353°
2026-05-06 13:35 52.35469 10.85367 31990 ft 449 kts 353°
2026-05-06 13:36 52.38575 10.84954 31485 ft 446 kts 353°
2026-05-06 13:36 52.41660 10.84542 30983 ft 443 kts 353°
2026-05-06 13:36 52.44724 10.84130 30490 ft 441 kts 353°
2026-05-06 13:36 52.47767 10.83722 29998 ft 438 kts 354°
2026-05-06 13:37 52.50799 10.83314 29458 ft 435 kts 354°
2026-05-06 13:37 52.53795 10.82912 28990 ft 430 kts 354°
2026-05-06 13:37 52.56760 10.82514 28523 ft 425 kts 354°
2026-05-06 13:37 52.59690 10.82120 28076 ft 420 kts 355°
2026-05-06 13:38 52.62591 10.81729 27626 ft 417 kts 355°
2026-05-06 13:38 52.65507 10.81338 27189 ft 413 kts 355°
2026-05-06 13:38 52.68361 10.80956 26767 ft 410 kts 355°
2026-05-06 13:38 52.71186 10.80573 26356 ft 405 kts 355°
2026-05-06 13:39 52.73984 10.80193 25949 ft 402 kts 355°
2026-05-06 13:39 52.76758 10.79818 25542 ft 399 kts 355°
2026-05-06 13:39 52.79523 10.79445 25126 ft 397 kts 355°
2026-05-06 13:39 52.82264 10.79075 24706 ft 394 kts 355°
2026-05-06 13:40 52.84995 10.78703 24291 ft 394 kts 355°
2026-05-06 13:40 52.87730 10.78326 23866 ft 395 kts 354°
2026-05-06 13:40 52.90469 10.77944 23427 ft 395 kts 354°
2026-05-06 13:40 52.93207 10.77563 22933 ft 394 kts 354°
2026-05-06 13:41 52.95927 10.77187 22493 ft 390 kts 354°
2026-05-06 13:41 52.98616 10.76820 22040 ft 386 kts 354°
2026-05-06 13:41 53.01280 10.76459 21592 ft 382 kts 354°
2026-05-06 13:41 53.03916 10.76102 21144 ft 379 kts 354°
2026-05-06 13:42 53.06535 10.75746 20689 ft 377 kts 354°
2026-05-06 13:42 53.09143 10.75391 20242 ft 375 kts 354°
2026-05-06 13:42 53.11737 10.75034 19796 ft 373 kts 354°
2026-05-06 13:42 53.14313 10.74680 19352 ft 371 kts 353°
2026-05-06 13:43 53.16885 10.74325 18895 ft 369 kts 353°
2026-05-06 13:43 53.19440 10.73972 18455 ft 368 kts 353°
2026-05-06 13:43 53.21982 10.73619 17991 ft 366 kts 353°
2026-05-06 13:43 53.24512 10.73266 17524 ft 364 kts 353°
2026-05-06 13:44 53.27023 10.72916 17098 ft 360 kts 353°
2026-05-06 13:44 53.29509 10.72572 16648 ft 357 kts 353°
2026-05-06 13:44 53.31923 10.71827 16210 ft 350 kts 337°
2026-05-06 13:44 53.33978 10.69767 15738 ft 343 kts 314°
2026-05-06 13:45 53.35529 10.66777 15269 ft 339 kts 305°
2026-05-06 13:45 53.38383 10.60513 14371 ft 337 kts 304°
2026-05-06 13:45 53.39782 10.57390 13939 ft 336 kts 304°
2026-05-06 13:46 53.41192 10.54212 13234 ft 342 kts 304°
2026-05-06 13:46 53.42606 10.50991 12662 ft 343 kts 304°
2026-05-06 13:46 53.44005 10.47768 12147 ft 341 kts 304°
2026-05-06 13:46 53.45385 10.44541 11636 ft 340 kts 304°
2026-05-06 13:47 53.46746 10.41301 11152 ft 338 kts 304°
2026-05-06 13:47 53.48080 10.38073 10695 ft 336 kts 304°
2026-05-06 13:47 53.49075 10.34577 10377 ft 329 kts 283°
2026-05-06 13:47 53.49381 10.30841 10244 ft 317 kts 275°
2026-05-06 13:48 53.49576 10.27217 10131 ft 307 kts 274°
2026-05-06 13:48 53.49697 10.24876 10023 ft 301 kts 275°
2026-05-06 13:48 53.49867 10.21395 9764 ft 297 kts 275°
2026-05-06 13:48 53.49929 10.17941 9401 ft 295 kts 262°
2026-05-06 13:49 53.49324 10.14684 9023 ft 293 kts 246°
2026-05-06 13:49 53.48497 10.11571 8634 ft 292 kts 244°
2026-05-06 13:49 53.47652 10.08473 8265 ft 291 kts 244°
2026-05-06 13:49 53.46808 10.05389 7916 ft 290 kts 244°
2026-05-06 13:50 53.45968 10.02318 7573 ft 289 kts 244°
2026-05-06 13:50 53.45132 9.99259 7239 ft 288 kts 244°
2026-05-06 13:50 53.44312 9.96249 7098 ft 279 kts 244°
2026-05-06 13:50 53.43518 9.93340 6972 ft 270 kts 244°
2026-05-06 13:51 53.42730 9.90453 6536 ft 275 kts 244°
2026-05-06 13:51 53.41943 9.87571 6404 ft 268 kts 244°
2026-05-06 13:51 53.41180 9.84775 6275 ft 260 kts 244°
2026-05-06 13:51 53.40438 9.82064 6165 ft 250 kts 244°
2026-05-06 13:52 53.39732 9.79456 6033 ft 242 kts 244°
2026-05-06 13:52 53.39047 9.76933 5889 ft 234 kts 244°
2026-05-06 13:52 53.38379 9.74476 5664 ft 231 kts 244°
2026-05-06 13:52 53.37714 9.72025 5381 ft 231 kts 244°
2026-05-06 13:53 53.37049 9.69590 5101 ft 229 kts 244°
2026-05-06 13:53 53.36380 9.67173 4787 ft 229 kts 244°
2026-05-06 13:53 53.35904 9.64658 4454 ft 228 kts 268°
2026-05-06 13:53 53.36257 9.62135 4086 ft 223 kts 304°
2026-05-06 13:54 53.37360 9.60436 3722 ft 213 kts 341°
2026-05-06 13:54 53.38772 9.59969 3464 ft 205 kts
2026-05-06 13:54 53.40166 9.60097 3240 ft 197 kts 19°
2026-05-06 13:54 53.41456 9.60775 3061 ft 193 kts 24°
2026-05-06 13:55 53.42721 9.61520 2988 ft 190 kts 24°
2026-05-06 13:55 53.43935 9.62226 3001 ft 178 kts 24°
2026-05-06 13:55 53.45054 9.63006 2997 ft 170 kts 37°
2026-05-06 13:55 53.45883 9.64375 3006 ft 167 kts 52°
2026-05-06 13:56 53.46627 9.65860 2998 ft 165 kts 52°
2026-05-06 13:56 53.47368 9.67338 3000 ft 166 kts 51°
2026-05-06 13:56 53.48111 9.68820 3009 ft 166 kts 52°
2026-05-06 13:56 53.48854 9.70306 3006 ft 166 kts 52°
2026-05-06 13:57 53.49599 9.71795 3010 ft 167 kts 52°
2026-05-06 13:57 53.50345 9.73289 3018 ft 167 kts 51°
2026-05-06 13:57 53.51088 9.74775 3010 ft 166 kts 52°
2026-05-06 13:57 53.51829 9.76261 3004 ft 166 kts 52°
2026-05-06 13:58 53.52569 9.77744 2936 ft 166 kts 51°
2026-05-06 13:58 53.53310 9.79229 2772 ft 166 kts 51°
2026-05-06 13:58 53.54049 9.80713 2565 ft 165 kts 51°
2026-05-06 13:58 53.54783 9.82186 2345 ft 164 kts 51°
2026-05-06 13:59 53.55517 9.83660 2122 ft 164 kts 50°
2026-05-06 13:59 53.56251 9.85138 1892 ft 166 kts 51°
2026-05-06 13:59 53.56964 9.86570 1677 ft 152 kts 50°
2026-05-06 13:59 53.57594 9.87838 1482 ft 133 kts 51°
2026-05-06 14:00 53.58169 9.89000 1282 ft 126 kts 50°
2026-05-06 14:00 53.58724 9.90115 1092 ft 124 kts 49°
2026-05-06 14:00 53.59278 9.91218 913 ft 123 kts 50°
2026-05-06 14:00 53.59817 9.92314 780 ft 122 kts 51°
2026-05-06 14:01 53.60363 9.93412 639 ft 122 kts 50°
2026-05-06 14:01 53.60902 9.94507 483 ft 121 kts 50°
2026-05-06 14:01 53.61447 9.95601 266 ft 122 kts 50°
2026-05-06 14:01 53.61986 9.96696 97 ft 121 kts 50°
2026-05-06 14:02 53.62498 9.97731 41 ft 103 kts 50°
2026-05-06 14:02 53.62877 9.98500 44 ft 70 kts 50°
2026-05-06 14:02 53.63129 9.99010 46 ft 48 kts 50°
2026-05-06 14:02 53.63285 9.99372 44 ft 29 kts 76°
2026-05-06 14:03 53.63282 9.99605 48 ft 9 kts 99°
2026-05-06 14:03 53.63279 9.99639 48 ft 0 kts 99°
2026-05-06 14:06 53.63278 9.99643 48 ft 1 kts 99°
2026-05-06 14:06 53.63275 9.99676 48 ft 5 kts 100°
2026-05-06 14:06 53.63257 9.99728 47 ft 5 kts 135°
2026-05-06 14:07 53.63229 9.99755 48 ft 5 kts 152°
2026-05-06 14:07 53.63201 9.99779 48 ft 5 kts 153°
2026-05-06 14:07 53.63167 9.99809 46 ft 6 kts 153°
2026-05-06 14:07 53.63125 9.99845 48 ft 7 kts 152°
2026-05-06 14:08 53.63086 9.99879 48 ft 7 kts 153°
2026-05-06 14:08 53.63037 9.99921 48 ft 8 kts 152°
2026-05-06 14:08 53.62985 9.99966 48 ft 9 kts 153°
2026-05-06 14:08 53.62946 10.00028 48 ft 7 kts 106°
2026-05-06 14:09 53.62956 10.00101 47 ft 6 kts 67°
2026-05-06 14:09 53.62945 10.00148 48 ft 5 kts 180°
2026-05-06 14:09 53.62916 10.00120 46 ft 5 kts 214°
2026-05-06 14:09 53.62896 10.00091 48 ft 1 kts 227°
2026-05-06 14:10 53.62887 10.00073 48 ft 3 kts 224°
2026-05-06 14:10 53.62869 10.00061 48 ft 4 kts 193°
2026-05-06 14:10 53.62833 10.00082 48 ft 6 kts 152°
2026-05-06 14:10 53.62799 10.00111 48 ft 5 kts 153°
2026-05-06 14:11 53.62779 10.00143 48 ft 3 kts 102°
2026-05-06 14:11 53.62788 10.00180 48 ft 5 kts 62°
2026-05-06 14:11 53.62803 10.00225 46 ft 3 kts 63°
2026-05-06 14:11 53.62809 10.00245 48 ft 1 kts 63°
2026-05-06 14:12 53.62809 10.00246 48 ft 0 kts 63°